Weather Roundup
Issued by NWS Springfield, MO

Home | Current Version | Previous Version | Text Only | Print | Product List | Glossary On
Versions: 1 2 3 4 5 6 7 8 9 10 11 12 13 14 15 16 17 18 19 20 21 22 23 24 25 26 27 28 29 30 31 32 33 34 35 36 37 38 39 40 41 42 43 44 45 46 47 48 49 50
000
NZUS99 KSGF 261907
HRRSGF

HOURLY WEATHER
NATIONAL WEATHER SERVICE SPRINGFIELD MO
200 PM CDT SAT JUL 26 2014

......SGF CWA......

CITY           SKY/WX    TMP DP  RH WIND       PRES   REMARKS
SPRINGFIELD    SUNNY     96  68  39 SW15G24   29.93F HX 101
JOPLIN         SUNNY     98  69  38 SW16G24   29.91F HX 104
WEST PLAINS    SUNNY     91  72  53 SW12      29.97F HX  98
ROLLA          MOSUNNY   98  68  37 SW16G23   29.89S HX 103
OSAGE BEACH    MOSUNNY   97  68  38 SW12G18   29.88R HX 101
BRANSON        MOSUNNY   97  68  38 SW13G18   29.98F HX 101

......SURROUNDING SGF CWA......

CITY           SKY/WX    TMP DP  RH WIND       PRES   REMARKS
CHANUTE        PTSUNNY   95  73  48 S14G26    29.87F HX 104
PARSONS        PTSUNNY   96  72  45 S12       29.89F HX 104
COFFEYVILLE    MOSUNNY   95  72  47 S16G23    29.88F HX 103
EMPORIA        PTSUNNY   94  67  41 S15       29.84F HX  97
GROVE OK       MOSUNNY   95  70  43 SW13      29.94S HX 101
ROGERS AR      SUNNY     93  69  45 SW9G22    29.98F HX  98
SILOAM SPRINGS SUNNY     91  68  46 SW17G24   29.98F HX  95
HARRISON AR    SUNNY     92  71  50 S9        29.98F HX  98
NEAR YELLVILLE SUNNY     95  70  43 SW10      29.95F HX 101

......KANSAS AND MISSOURI......

CITY           SKY/WX    TMP DP  RH WIND       PRES   REMARKS
KANSAS CTY INT LGT RAIN  81  72  74 CALM      29.84R
DOWNTOWN KC    CLOUDY    85  70  60 S8        29.79F
COLUMBIA       LGT RAIN  83  71  67 W16G26    29.90R
SEDALIA        LGT RAIN  83  73  72 CALM      29.90R
ST JOSEPH      PTSUNNY   87  74  64 S10       29.81R HX  95
ST LOUIS       PTSUNNY   99  72  41 W17G23    29.84F HX 108
SPIRIT OF STL  PTSUNNY   98  70  40 W8G17     29.82F HX 105
KIRKSVILLE     CLOUDY    87  74  64 W8        29.87S HX  95
WICHITA        PTSUNNY  100  64  30 SW18      29.85F HX 102
TOPEKA         CLOUDY    88  69  53 S7        29.82R HX  92
OLATHE         CLOUDY    83  73  72 SW8       29.83F

......TENNESSEE......

CITY           SKY/WX    TMP DP  RH WIND       PRES   REMARKS
MEMPHIS        MOSUNNY   92  76  59 W7        29.99F HX 104
NASHVILLE      MOSUNNY   89  67  47 SW9       29.99F HX  92

......ARKANSAS.......

CITY           SKY/WX    TMP DP  RH WIND       PRES   REMARKS
FAYETTEVILLE   SUNNY     91  73  55 S13       29.99S HX  99
FT SMITH       SUNNY     93  73  52 SW10      29.96F HX 102
LITTLE ROCK    PTSUNNY   93  74  53 S12       29.99F HX 103

......OKLAHOMA.......

CITY           SKY/WX    TMP DP  RH WIND       PRES   REMARKS
TULSA          PTSUNNY   97  70  41 S13       29.89F HX 103
PONCA CITY     SUNNY     97  70  41 S8G21     29.88F HX 103
MCALESTER      SUNNY     94  74  52 SW12      29.97F HX 104
OKLAHOMA CITY  PTSUNNY   99  67  35 S12G20    29.93F HX 103

......IOWA............

CITY           SKY/WX    TMP DP  RH WIND       PRES   REMARKS
DES MOINES     PTSUNNY   86  70  58 CALM      29.86R HX  90
QUAD CITIES    CLOUDY    78  69  73 SE6       29.81F

......ILLINOIS........

CITY           SKY/WX    TMP DP  RH WIND       PRES   REMARKS
QUINCY         CLOUDY    84  75  74 SW6       29.84S THUNDER HX  92
CHICAGO        PTSUNNY   81  65  58 S7        29.78F



USA.gov is the U.S. government's official web portal to all federal, state and local government web resources and services.